This is the latest recevied weather packets stored in our database for station/object KF4CQ. If no packets are shown the sender has not sent any weather packets the latest 1 day(s).
| Time | Temp. | Humidity | Pressure | Rain* | Wind** | Luminosity | Snow |
|---|---|---|---|---|---|---|---|
| 1778095155 | 34.44° C | 46% | 1016.5 hPa | 0 mm | - | 269 W/m² | - |
| 1778094851 | 33.89° C | 46% | 1016.7 hPa | 0 mm | - | 716 W/m² | - |
| 1778092730 | 33.33° C | 48% | 1016.9 hPa | 0 mm | - | 756 W/m² | - |
| 1778092425 | 32.78° C | 48% | 1017 hPa | 0 mm | - | 783 W/m² | - |
| 1778090304 | 32.78° C | 49% | 1017.5 hPa | 0 mm | - | 793 W/m² | - |
| 1778090001 | 32.78° C | 49% | 1017.5 hPa | 0 mm | - | 731 W/m² | - |
| 1778089093 | 32.78° C | 49% | 1017.6 hPa | 0 mm | - | 782 W/m² | - |
| 1778087881 | 32.78° C | 50% | 1017.8 hPa | 0 mm | - | 815 W/m² | - |
| 1778086064 | 32.22° C | 52% | 1018.1 hPa | 0 mm | - | 769 W/m² | - |
| 1778085761 | 31.67° C | 52% | 1018.2 hPa | 0 mm | - | 777 W/m² | - |
| 1778085458 | 31.67° C | 52% | 1018.4 hPa | 0 mm | - | 748 W/m² | - |
| 1778084849 | 31.67° C | 53% | 1018.1 hPa | 0 mm | - | 743 W/m² | - |
| 1778084547 | 31.67° C | 54% | 1018.3 hPa | 0 mm | - | 706 W/m² | - |
| 1778084244 | 31.11° C | 53% | 1018.5 hPa | 0 mm | - | 687 W/m² | - |
| 1778081598 | 30° C | 59% | 1018.7 hPa | 0 mm | - | 607 W/m² | - |
| 1778080691 | 30° C | 60% | 1018.7 hPa | 0 mm | - | 513 W/m² | - |
| 1778080084 | 29.44° C | 60% | 1018.7 hPa | 0 mm | - | 536 W/m² | - |
| 1778079781 | 28.89° C | 61% | 1018.9 hPa | 0 mm | - | 501 W/m² | - |
| 1778079478 | 28.89° C | 61% | 1018.6 hPa | 0 mm | - | 463 W/m² | - |
| 1778079174 | 28.89° C | 65% | 1018.5 hPa | 0 mm | - | 457 W/m² | - |
| 1778078872 | 28.89° C | 66% | 1018.4 hPa | 0 mm | - | 522 W/m² | - |
| 1778078266 | 28.89° C | 68% | 1018.4 hPa | 0 mm | - | 372 W/m² | - |
| 1778077662 | 27.78° C | 70% | 1018.5 hPa | 0 mm | - | 470 W/m² | - |
| 1778074027 | 25.56° C | 80% | 1018.4 hPa | 0 mm | - | 241 W/m² | - |
| 1778071605 | 23.89° C | 85% | 1018.1 hPa | 0 mm | - | 89 W/m² | - |
* Rain latest hour (hover to see other rain measurements)
** Current wind speed in m/s (hover to see current wind gust speed)